Погода в Татуине

Тунис     32°55′40″N   10°27′02″E
темп.,
°C
ветер,
м/с
пор.,
м/с
влажн.,
%
обл.,
%
осадки,
мм/ч
давл.,
гПа
погр.,
м
7 августа, вс
вс701:00+27всв22395 0.0 101311
04:00+25св22490 0.0 101217
07:00+26ссв23610 0.0 1013202
10:00+31св44350 0.0 1014978
13:00+35св54250 0.0 10122187
16:00+35ссв86292 0.0 10112425
19:00+31св66350 0.0 1012517
22:00+27вюв22560 0.0 101333
8 августа, пн
пн801:00+25вюв11620 0.0 101311
04:00+24ссв22680 0.0 101313
07:00+25с24670 0.0 1014202
10:00+30св44420 0.0 10151176
13:00+35св66270 0.0 10132604
16:00+35ссв76240 0.0 10122538
19:00+31всв56320 0.0 1013159
22:00+26в22580 0.0 101533
9 августа, вт
вт901:00+25в22670 0.0 101511
04:00+23всв11790 0.0 101411
07:00+25с12760 0.0 1016154
10:00+31св33440 0.0 1016914
13:00+35св45280 0.0 10152679
16:00+36св87260 0.0 10132767
19:00+32всв57330 0.0 1013282
22:00+28вюв34480 0.0 101586
10 августа, ср
ср1001:00+26юв22530 0.0 101512
04:00+24юв11590 0.0 101311
07:00+25в12580 0.0 1015126
10:00+31всв33320 0.0 1015770
13:00+35всв33230 0.0 10142002
16:00+37всв56220 0.0 10123034
19:00+29всв78450 0.0 1013490
22:00+27в47570 0.0 1014302
11 августа, чт
чт1101:00+25вюв35650 0.0 1014184
04:00+24в12720 0.0 101315
07:00+25всв23690 0.0 1015211
10:00+30всв44440 0.0 10151019
13:00+34св33320 0.0 10142061
16:00+36св762713 0.0 10112605
19:00+29в67490 0.0 1012470
22:00+27в47580 0.0 1013352